GEFSGL_con_maxscp_342.txt.gz
SCP
3 4 5 5 5 5 5 5 5 5 6 6 7 7 7 6 4 3 3 3 3 2 1 1 1 2 2 2 2 2 2 1 1 1 1 1 1 1 1 1 1 1 1
3 3 4 5 5 5 5 5 6 7 7 7 8 8 8 7 6 4 3 2 2 2 1 1 1 2 2 2 2 2 2 2 1 1 2 2 2 1 1 1 0 1 1
2 3 3 4 5 6 6 6 7 8 8 9 9 10 9 9 8 6 3 2 2 2 2 2 2 2 2 2 2 2 2 2 2 2 2 2 2 1 1 0 0 0 0
2 2 2 2 4 5 6 6 7 7 8 9 10 11 11 11 10 7 4 3 2 2 2 2 2 1 2 2 2 2 2 3 3 3 2 2 1 1 0 0 0 0 0
3 3 2 2 3 3 4 5 7 7 8 9 10 10 11 11 10 8 5 3 2 2 2 2 1 1 1 2 2 2 2 2 2 2 2 1 1 0 0 0 0 0 0
4 4 4 4 4 4 3 4 5 6 7 7 7 8 9 10 9 7 6 4 3 2 2 1 1 1 1 1 1 1 1 2 2 2 2 2 1 1 0 0 0 0 0
6 5 5 6 6 5 4 3 3 4 4 5 5 6 7 8 7 5 5 4 3 2 1 1 1 1 1 2 2 2 2 2 2 2 3 3 3 2 1 1 1 1 1
6 6 6 6 6 5 4 2 2 2 2 3 4 4 4 5 4 3 3 4 3 1 1 1 1 1 1 2 2 2 2 2 2 2 2 3 3 2 1 1 1 1 1
5 5 6 6 5 4 4 3 2 2 2 2 3 3 3 3 3 2 2 3 2 1 1 1 1 1 1 1 1 2 2 2 2 2 1 1 1 1 1 1 1 1 1
4 4 5 5 5 4 4 3 3 2 2 3 3 3 3 3 2 1 2 3 2 1 1 1 0 0 0 1 1 1 1 1 1 1 1 1 1 1 1 1 1 1 1
4 4 4 4 4 4 4 4 3 3 3 3 3 2 2 2 2 1 1 2 2 1 1 1 0 0 0 0 1 1 1 1 1 1 1 1 1 2 2 2 2 2 2
4 4 4 4 4 4 5 4 4 3 3 3 3 2 2 2 2 1 1 1 1 1 1 1 1 0 0 0 0 0 0 1 1 1 1 1 1 1 2 2 3 3 3
3 4 4 4 4 4 5 5 5 4 3 3 3 2 2 3 2 1 1 0 0 0 1 1 1 0 0 0 0 0 0 0 0 0 0 0 0 0 1 1 2 3 3
3 3 3 3 3 4 4 5 5 5 4 4 3 3 3 3 3 2 2 1 1 1 1 1 1 1 1 0 0 0 0 0 0 0 0 0 0 0 0 1 1 2 3
3 3 3 3 3 3 3 4 4 4 4 4 3 3 3 3 2 2 2 2 1 1 1 2 2 2 2 2 1 1 0 0 0 0 0 0 0 0 0 0 1 1 2
2 3 4 4 3 3 3 2 3 3 3 2 2 2 2 2 1 1 1 1 1 1 1 2 2 3 3 3 2 2 1 1 1 1 0 0 0 0 0 0 1 1 1
2 3 4 5 5 4 3 3 2 3 3 2 1 1 1 1 0 0 0 0 0 0 0 1 1 2 2 2 2 2 2 2 2 2 1 1 1 1 1 0 1 1 1
2 2 4 6 7 6 5 4 4 4 4 4 2 1 0 0 0 0 0 0 0 0 0 0 0 0 1 1 1 1 2 2 2 2 2 2 2 2 1 1 1 1 1
2 2 4 6 8 8 7 6 5 5 5 5 4 3 1 0 0 0 0 0 1 0 0 0 0 0 0 0 0 1 1 1 1 1 2 2 2 2 2 1 1 1 1
2 2 2 4 6 6 6 5 5 5 5 5 5 4 3 1 1 1 0 1 1 1 1 1 0 0 0 0 0 0 0 0 0 1 1 1 1 2 1 1 1 1 1
3 2 2 2 3 3 3 3 3 3 3 3 4 4 4 2 2 1 1 1 1 2 2 2 1 1 1 1 0 0 0 0 0 0 0 0 1 1 1 1 1 1 1
3 3 2 2 1 1 1 1 1 1 1 2 2 3 3 3 2 2 2 2 2 2 3 3 2 2 1 1 1 1 1 0 1 1 1 1 1 1 1 1 1 1 1
4 3 3 2 1 1 1 1 1 0 0 1 1 2 2 2 2 2 1 2 2 3 4 4 4 3 2 2 2 1 1 1 1 1 2 1 1 2 1 1 1 1 2
4 3 3 2 1 1 1 1 0 0 0 0 1 2 2 3 2 2 1 1 2 2 3 4 4 3 3 2 2 2 2 1 1 2 2 2 2 2 2 2 2 2 3
3 3 3 2 1 1 1 1 0 0 0 1 1 2 2 2 2 2 1 1 1 1 1 2 2 2 2 2 3 3 3 1 1 1 2 2 2 2 2 2 2 3 3
3 3 3 3 2 1 1 1 0 0 0 1 1 2 2 2 2 1 1 0 0 0 0 1 1 1 1 1 3 5 3 1 0 1 2 2 2 1 2 2 2 3 3

GEFSGL_con_maxscp_348.txt.gz
SCP
3 4 7 6 5 5 5 5 6 7 8 8 8 7 6 5 5 4 5 5 5 4 3 3 3 2 2 2 3 3 3 3 2 2 2 2 3 3 2 2 2 2 1
3 3 4 5 6 6 6 5 5 6 7 7 7 7 6 6 6 6 5 5 4 3 3 3 3 3 2 3 3 3 3 3 3 3 2 2 3 3 3 2 2 2 1
3 3 3 4 5 7 7 6 5 5 5 5 6 6 6 6 7 7 7 6 5 3 3 4 4 3 3 3 3 3 3 4 4 3 3 3 4 4 3 3 2 2 1
4 4 4 4 4 5 6 7 8 7 6 6 5 5 5 6 7 8 8 8 6 4 4 5 4 3 2 3 3 4 4 4 4 4 4 5 5 4 4 3 3 2 1
6 6 5 4 4 4 5 6 8 10 10 9 7 5 5 5 5 7 8 7 6 5 5 5 4 2 2 2 3 3 4 4 5 5 6 7 6 5 4 4 3 2 2
6 6 5 4 4 4 5 6 7 9 11 12 9 6 4 4 3 4 5 6 5 5 5 4 3 3 2 2 2 2 3 4 5 6 7 7 6 5 4 4 4 3 2
4 4 4 5 5 5 6 7 7 7 8 9 9 6 4 3 2 2 3 4 5 6 5 5 4 3 3 3 2 2 2 2 4 5 6 5 4 4 3 3 3 3 2
3 3 4 5 6 6 7 7 7 7 7 7 6 5 4 3 2 1 2 4 5 5 5 5 5 4 3 2 2 2 2 2 2 3 3 3 2 2 3 3 3 2 2
4 4 4 5 6 7 7 6 7 8 8 7 6 5 4 3 2 1 2 4 5 5 5 5 4 3 2 2 2 2 2 1 1 1 1 1 1 1 2 2 2 2 2
6 6 5 5 7 7 7 7 8 9 10 9 7 6 5 4 3 2 2 5 6 6 6 4 3 2 1 1 1 1 1 1 1 1 1 1 1 1 1 2 2 2 2
7 6 6 5 6 6 6 7 8 10 10 9 7 6 5 4 4 2 2 5 7 7 6 5 3 1 1 0 1 1 1 1 1 2 2 1 2 2 2 2 2 2 2
6 7 6 6 6 6 5 6 7 8 9 8 6 6 6 5 4 3 2 3 5 6 6 5 3 1 0 0 0 0 1 1 2 2 2 2 2 3 3 3 3 3 2
6 6 6 7 7 5 4 4 5 7 7 7 7 7 7 7 5 3 2 2 3 4 5 4 2 1 0 0 0 0 0 1 2 3 4 4 4 4 5 5 4 3 3
6 6 6 6 6 5 4 5 6 7 8 8 8 8 9 8 7 5 3 3 2 3 4 3 2 1 1 1 2 2 2 3 3 4 4 5 5 5 6 5 5 4 3
7 7 7 6 6 6 5 6 6 7 8 8 8 8 8 7 6 5 4 3 3 3 3 3 3 3 3 3 3 4 4 4 4 4 5 5 5 5 4 4 4 4 3
8 9 9 8 8 7 6 6 6 6 5 5 5 5 5 4 3 2 2 2 2 2 3 4 4 4 4 4 4 4 5 5 5 4 4 3 3 3 3 3 3 3 3
10 10 11 11 10 8 7 6 5 4 3 2 2 2 2 1 0 0 0 1 1 1 3 4 4 3 3 3 3 4 4 5 4 4 3 3 2 2 2 2 3 3 3
9 10 11 11 10 8 6 5 4 4 4 3 2 1 0 0 0 0 0 1 1 2 3 4 4 3 3 2 3 4 4 4 3 3 3 3 3 2 2 2 2 2 3
7 7 7 7 7 5 4 4 4 5 7 7 6 3 1 0 0 0 1 2 3 4 4 4 4 4 3 2 3 4 4 3 3 3 3 3 2 2 3 3 2 2 2
6 5 4 4 4 3 3 3 4 7 11 12 9 5 3 2 1 1 1 3 4 5 5 5 5 4 3 3 3 4 3 3 2 2 2 2 2 2 2 2 2 2 2
5 5 4 4 3 3 3 3 4 6 11 12 9 6 3 3 3 2 2 3 3 4 5 5 5 5 4 3 4 4 3 2 2 2 2 3 3 3 3 3 3 3 2
6 5 5 5 4 3 3 3 3 4 6 7 6 4 4 4 5 4 4 3 3 4 5 5 5 5 4 4 4 4 3 3 3 3 3 3 4 5 4 4 4 4 4
5 5 4 4 4 4 3 3 3 3 3 4 4 4 5 7 7 6 5 3 3 3 4 5 4 4 3 3 3 3 3 3 3 3 3 4 4 4 5 5 6 6 6
3 3 3 3 3 4 4 3 3 3 4 5 4 4 5 7 7 6 4 3 2 2 3 4 4 3 2 2 2 2 2 2 2 3 3 3 3 4 4 6 7 8 8
1 2 2 2 2 3 4 4 4 3 4 5 5 4 4 4 4 3 3 2 2 2 2 3 3 2 2 1 1 1 1 1 1 1 2 2 3 3 4 5 6 7 8
1 1 1 1 1 2 3 3 4 4 4 4 5 4 3 3 2 2 2 2 2 2 2 2 2 2 1 1 1 0 0 0 0 0 1 1 2 3 3 3 4 5 7

GEFSGL_con_maxscp_354.txt.gz
SCP
9 8 6 5 5 5 4 4 5 6 7 7 8 8 9 9 10 9 9 9 8 6 5 5 5 5 5 4 4 3 3 3 4 4 4 4 4 3 3 2 2 2 1
8 8 7 6 6 6 5 5 5 6 7 8 8 8 9 8 8 8 8 8 8 7 6 5 5 5 5 5 4 3 3 4 4 4 4 4 4 3 3 3 2 2 1
8 8 8 8 8 7 7 7 6 6 8 9 9 9 9 8 8 7 6 6 7 8 7 7 6 5 5 4 4 3 4 5 5 5 5 5 4 4 4 3 2 1 1
8 9 11 11 10 9 10 9 7 7 7 8 9 9 9 9 8 7 6 5 6 7 8 8 7 6 5 4 4 4 4 5 6 6 6 6 6 6 5 3 1 1 1
9 10 11 11 11 11 11 10 8 8 7 7 7 8 9 9 7 6 6 5 5 6 7 7 7 6 5 5 4 4 4 5 6 7 7 7 7 7 6 4 2 1 1
7 8 10 11 11 12 11 10 9 9 9 9 8 8 8 7 6 5 5 6 6 6 6 6 6 6 5 4 4 3 3 4 6 7 8 8 8 7 6 4 3 2 2
6 7 8 10 12 12 12 10 9 9 10 11 10 9 9 7 4 4 5 7 7 7 6 6 5 5 5 5 4 2 2 3 5 6 7 7 6 6 5 4 3 2 2
6 6 7 9 11 12 12 11 9 8 9 11 11 10 9 7 4 4 6 7 7 6 6 6 6 6 6 5 4 3 2 2 3 4 4 4 3 3 3 3 3 2 2
6 6 6 7 8 10 11 10 8 7 9 11 12 11 9 6 4 4 6 7 7 6 5 5 5 6 6 5 5 4 3 2 2 2 2 1 1 1 1 2 2 2 2
8 8 7 7 7 8 9 10 8 7 7 9 10 10 7 5 4 4 5 6 6 5 5 4 4 5 5 5 5 4 3 3 3 2 2 1 1 1 1 1 2 2 2
10 10 10 8 7 7 8 9 8 7 6 7 8 7 5 4 3 2 3 5 6 6 5 4 4 3 3 3 4 4 3 2 3 3 3 2 2 2 1 1 2 2 2
10 11 11 10 8 6 7 7 7 7 6 6 6 5 4 3 3 2 1 3 6 6 6 5 4 2 1 1 2 3 2 2 2 3 3 2 2 2 2 2 2 2 2
10 11 12 12 9 7 7 7 7 7 6 6 5 4 3 4 3 2 1 2 4 5 6 5 3 2 1 1 1 1 1 1 2 2 2 2 1 1 2 2 2 2 2
10 11 12 11 10 9 8 7 7 7 7 7 6 5 4 4 5 4 3 2 3 4 5 5 4 2 2 2 2 1 1 2 2 1 1 1 1 1 2 2 3 2 2
9 10 10 11 10 10 9 7 6 6 6 6 5 5 5 5 5 6 6 4 3 3 4 5 5 3 3 4 4 3 2 2 2 1 1 2 2 2 2 3 3 2 2
8 8 9 10 11 11 10 7 5 4 3 3 3 4 4 4 4 5 5 4 3 3 3 4 5 5 5 6 6 5 4 3 3 2 2 2 2 2 2 2 2 2 2
10 10 12 13 13 12 11 10 7 4 2 1 1 2 2 3 2 2 2 2 2 2 4 5 5 5 6 6 6 5 5 4 4 3 2 2 2 2 2 3 3 2 2
10 12 14 16 15 14 13 12 10 7 4 2 1 1 1 1 1 0 0 1 2 3 5 7 7 6 6 6 6 6 5 5 4 3 3 2 3 3 3 3 3 3 2
7 8 10 12 12 11 9 8 6 5 3 2 1 1 0 0 1 0 0 2 3 4 5 6 6 5 4 4 5 6 5 5 4 4 3 3 4 4 4 3 3 3 2
3 4 4 5 6 5 4 3 2 2 2 2 2 1 1 1 1 2 2 3 4 5 4 4 4 3 3 3 4 5 5 5 5 4 4 5 5 5 4 3 3 3 3
3 2 2 2 3 3 2 2 2 2 3 2 2 1 1 1 2 2 3 4 5 5 4 3 3 2 2 2 3 4 5 5 6 6 6 6 6 5 4 3 3 3 3
3 3 2 2 3 3 3 3 3 3 3 2 2 1 1 1 1 2 2 4 5 5 4 4 4 3 3 3 3 4 5 6 7 8 8 7 6 6 5 4 4 4 4
3 3 3 3 3 3 2 3 3 3 3 3 2 1 1 1 1 1 1 2 3 3 3 4 4 4 3 3 3 4 4 5 7 8 8 7 7 7 7 6 4 4 3
2 2 3 3 3 3 3 3 3 3 4 4 3 2 2 2 2 1 1 1 1 1 1 2 2 2 2 2 2 2 2 3 4 5 6 6 6 6 6 5 4 3 2
2 2 2 2 2 3 3 3 3 3 3 4 4 4 4 3 2 2 1 1 1 1 1 1 1 1 1 1 1 1 1 1 2 2 2 3 3 3 3 2 2 1 1
2 2 2 2 2 2 3 3 3 3 3 4 5 5 5 4 3 2 2 2 2 1 1 1 1 1 1 1 1 1 0 1 1 1 1 1 1 1 1 1 0 0 0

GEFSGL_con_maxscp_360.txt.gz
SCP
4 3 4 4 4 4 3 3 2 2 2 2 1 2 2 3 3 3 4 4 4 3 3 3 3 3 3 3 2 2 2 2 2 2 1 1 1 0 0 0 0 0 0
4 4 4 4 4 4 4 3 3 2 2 2 2 2 2 3 3 4 4 4 3 3 2 2 3 3 3 3 3 2 2 2 2 2 1 1 1 0 0 0 0 0 0
4 4 4 4 4 4 4 4 3 2 2 2 2 3 3 3 3 4 4 3 3 2 2 2 2 3 3 3 4 3 3 2 3 3 2 1 1 0 0 0 0 0 0
3 4 4 4 4 5 4 3 2 2 2 3 3 3 3 3 4 3 3 3 2 2 2 2 2 2 2 3 3 4 3 3 3 3 2 1 1 0 0 0 0 0 0
3 4 4 4 5 5 4 3 2 2 2 2 2 3 4 4 4 3 3 3 3 2 2 2 2 2 2 2 3 3 3 3 3 2 2 1 1 1 0 0 0 0 0
3 3 3 4 4 4 3 2 2 2 2 2 2 3 3 4 3 3 3 3 3 2 2 2 2 2 2 2 2 2 3 3 2 2 2 2 2 1 1 1 0 0 0
3 3 3 4 4 3 2 2 2 1 2 2 2 2 3 3 3 2 3 3 2 1 1 2 2 3 3 3 3 2 3 3 2 1 1 2 2 1 1 1 1 1 0
3 3 4 4 3 3 2 2 1 1 2 2 2 2 3 3 2 2 2 2 2 1 1 2 2 3 3 4 4 4 3 3 2 1 1 1 1 1 1 1 1 1 1
3 8 12 8 3 2 2 1 1 1 1 2 2 2 2 2 2 1 1 1 1 1 1 1 2 3 3 3 4 4 4 4 3 1 1 1 1 1 1 1 1 1 1
4 12 20 11 3 2 2 2 2 2 2 2 2 1 1 2 1 1 1 1 0 0 0 1 1 2 2 2 3 4 4 4 4 2 1 0 0 0 1 1 1 1 1
4 9 12 8 3 3 2 2 3 3 2 2 2 2 2 2 1 1 1 0 0 0 0 0 1 1 1 1 2 3 3 4 4 4 2 1 0 0 0 0 1 1 1
4 4 4 3 3 3 3 3 3 3 3 2 2 2 2 2 2 1 1 0 0 1 1 1 1 1 1 0 1 1 1 2 3 4 2 1 1 0 0 0 1 1 1
4 5 4 4 3 3 3 3 3 3 3 2 2 2 2 2 1 1 1 0 0 1 1 1 1 1 0 0 0 0 0 1 2 3 3 2 1 1 0 0 0 0 0
5 5 5 4 4 3 3 3 3 3 2 3 3 3 2 2 1 2 2 1 1 1 1 1 1 0 0 0 0 0 0 1 1 2 2 2 1 1 0 0 0 0 0
5 4 4 4 4 4 3 3 2 2 2 2 3 3 3 2 2 2 2 2 2 1 1 0 0 0 0 0 0 1 1 1 2 2 2 1 1 1 1 0 0 0 0
6 5 3 4 5 4 4 2 1 1 1 1 2 2 2 2 2 2 1 2 1 1 0 0 0 1 1 1 1 1 1 2 2 2 2 1 1 1 1 1 1 1 1
6 4 2 3 4 5 4 3 1 0 0 0 0 1 1 1 1 1 0 0 0 0 0 1 1 1 2 2 2 1 1 2 2 2 2 2 1 1 1 1 1 1 1
6 3 2 2 3 4 4 4 2 0 0 0 0 0 0 0 0 0 0 0 0 0 0 0 0 1 1 2 1 1 1 1 1 2 2 2 1 1 1 1 1 1 1
4 2 1 2 2 3 3 3 1 0 0 0 0 0 0 0 0 0 0 0 0 0 0 0 0 0 1 1 1 1 1 1 1 1 1 2 2 2 2 2 2 2 2
3 2 1 2 2 2 2 2 1 0 0 0 0 0 0 0 0 0 0 0 1 1 1 1 0 0 0 0 0 0 0 0 1 1 1 1 2 3 3 3 3 3 3
3 2 2 2 2 2 2 2 1 1 0 1 1 0 0 0 0 0 0 0 0 1 1 1 0 0 0 0 0 0 0 0 0 0 0 1 1 2 3 4 4 4 4
3 3 2 2 2 2 2 2 1 1 1 1 1 0 0 0 0 0 0 0 0 0 0 0 0 0 0 0 0 0 0 0 0 0 0 0 1 1 2 2 3 4 4
3 3 3 2 2 1 1 1 1 1 1 1 1 0 0 0 0 0 0 0 0 0 0 0 0 0 0 0 0 0 0 0 0 0 0 0 1 1 1 1 1 2 3
3 3 3 2 2 1 1 1 1 1 1 1 1 0 0 0 0 0 0 0 0 0 0 0 0 0 0 0 0 0 0 0 0 0 0 0 0 1 1 0 0 1 1
3 3 3 2 2 1 1 1 1 1 1 1 0 0 0 0 0 0 0 0 0 0 0 0 0 0 0 0 0 0 0 0 0 0 0 0 1 1 1 0 0 0 0
3 3 3 2 2 1 1 1 0 0 0 0 0 0 0 0 0 0 1 1 0 0 0 0 0 0 0 0 0 0 0 0 0 0 0 0 1 1 1 0 0 0 0

GEFSGL_con_maxscp_366.txt.gz
SCP
7 7 5 4 4 3 2 2 2 2 2 2 2 2 1 1 2 2 2 2 2 2 2 2 2 2 2 2 2 2 2 2 2 1 1 0 0 0 0 0 0 0 0
7 7 6 5 4 3 2 2 2 2 2 2 2 2 2 2 2 2 2 2 2 2 2 2 2 2 2 2 3 3 3 3 2 2 1 1 0 0 0 0 0 0 0
5 5 5 4 3 3 3 2 2 2 2 2 2 2 2 2 2 2 2 2 2 2 2 2 2 2 2 2 3 3 4 4 4 3 2 1 0 0 0 0 0 0 0
4 4 3 3 3 2 2 3 3 3 2 2 2 2 2 2 2 2 2 2 2 2 2 2 2 2 2 2 2 3 4 5 5 4 3 1 1 0 0 0 0 0 0
4 3 3 3 2 2 2 2 2 2 2 2 2 2 2 2 2 2 2 2 2 2 2 2 2 2 2 2 1 2 3 4 5 5 4 2 1 1 0 0 0 0 0
4 3 3 3 2 2 2 2 2 2 2 2 2 2 2 2 2 2 2 2 2 2 2 2 2 2 2 1 1 1 2 3 4 4 4 4 2 1 1 0 0 0 0
5 4 3 3 2 2 2 2 1 1 1 1 1 2 1 1 1 1 1 2 3 3 2 2 2 2 2 1 1 1 1 1 2 3 4 5 4 3 2 1 1 0 0
4 3 2 2 2 2 2 2 1 1 1 1 2 2 1 1 1 0 1 1 2 3 3 3 2 2 2 1 1 1 1 1 1 2 3 4 4 4 3 2 1 1 1
3 2 2 2 2 2 2 2 2 1 1 1 2 2 1 1 0 0 0 1 2 2 2 2 2 2 1 1 1 2 2 1 1 1 2 3 3 3 3 2 2 1 1
2 2 2 2 2 2 2 2 2 1 1 1 1 1 1 0 0 0 0 1 1 2 2 1 1 1 1 1 1 2 2 2 1 1 1 2 3 3 2 2 2 2 1
2 2 2 2 2 2 2 2 2 2 2 2 1 1 0 0 0 0 0 0 1 1 1 1 1 1 0 0 1 2 2 2 2 2 1 2 3 3 3 2 2 2 2
3 2 2 2 2 2 2 2 2 2 2 2 1 1 1 0 0 0 0 0 0 1 1 1 1 1 0 0 0 1 1 1 2 2 1 2 2 3 3 3 2 2 2
2 2 3 3 3 3 3 2 2 2 2 2 1 1 1 1 1 0 0 0 0 0 1 1 1 0 0 0 0 0 0 1 1 1 1 1 2 2 3 3 2 2 1
2 3 4 4 4 4 3 3 2 2 2 1 1 1 1 1 1 1 1 1 0 0 0 1 1 0 0 0 0 0 0 1 1 1 1 1 1 2 2 3 2 1 1
3 4 4 5 5 5 3 2 2 2 1 1 1 1 1 1 1 1 1 1 1 1 1 1 1 1 1 1 1 0 0 1 1 1 1 1 1 1 2 2 2 1 1
3 4 4 5 5 5 3 2 1 1 1 0 1 1 1 1 1 0 0 0 0 0 0 1 1 1 1 1 1 1 1 0 1 1 1 1 1 1 1 1 1 1 1
3 3 3 3 4 4 3 3 2 1 0 0 0 0 0 0 0 0 0 0 0 0 1 1 1 1 1 1 1 1 1 0 1 1 1 1 1 1 1 1 1 1 1
2 2 2 2 3 3 3 3 2 2 1 0 0 0 0 0 0 0 0 0 0 0 1 1 2 2 2 2 1 1 1 1 1 1 0 0 0 1 1 1 1 1 1
1 2 2 2 2 3 3 2 2 2 1 1 0 0 0 0 0 0 0 0 1 1 1 1 2 2 2 2 1 1 0 1 1 1 0 0 0 1 1 1 1 1 1
2 2 2 2 2 2 2 2 2 2 1 1 0 0 0 0 0 0 0 0 1 1 1 1 1 2 2 1 1 0 0 0 1 0 0 0 0 0 0 1 1 1 1
3 2 2 2 2 2 2 3 3 2 2 1 1 0 0 0 0 0 0 0 1 1 1 1 1 1 1 1 1 0 0 0 0 0 0 0 0 0 0 0 0 0 0
4 3 2 2 2 2 2 3 3 3 2 1 1 0 0 0 0 0 0 0 0 1 1 1 1 1 1 1 0 0 0 0 0 0 0 0 0 0 0 0 0 0 0
3 3 2 2 2 2 2 3 3 2 2 1 1 1 0 0 0 0 0 0 0 0 0 1 1 0 0 0 0 0 0 0 0 0 0 0 0 0 0 0 0 0 0
2 2 1 1 2 2 2 2 2 2 2 1 1 1 0 0 0 0 0 0 0 0 0 0 0 0 0 0 0 0 0 0 0 0 0 0 0 0 0 0 0 0 0
2 2 2 2 2 2 2 2 2 2 2 1 1 1 0 0 0 0 0 0 0 0 0 0 0 0 0 0 0 0 0 0 0 0 0 0 0 0 0 0 0 0 0
2 2 2 2 2 2 2 2 2 2 2 1 1 1 0 0 0 0 0 0 0 0 0 0 0 0 0 0 0 0 0 0 0 0 0 0 0 0 0 0 0 0 0